Orbital Elements at Epoch 2459000.5 (2020-May-31.0) TDB
Reference: JPL 18 (heliocentric ecliptic J2000)
Element | Value | Uncertainty (1-sigma) | Units |
e | .2174038570743396 | 3.4001e-08 | |
a | 2.436341665634867 | 1.3581e-08 | au |
q | 1.906671590374926 | 8.6171e-08 | au |
i | 2.801298559004374 | 5.7175e-06 | deg |
node | 60.94674860436122 | 8.0387e-05 | deg |
peri | 263.4722616854289 | 8.1769e-05 | deg |
M | 57.73960598781424 | 1.7718e-05 | deg |
tp | 2458777.719573655817 (2019-Oct-21.21957366) | 6.7126e-05 | TDB |
period | 1389.01109752692 3.80 | 1.1614e-05 3.18e-08 | d yr |
n | .2591771949417582 | 2.1671e-09 | deg/d |
Q | 2.966011740894808 | 1.6534e-08 | au |
|
| | Orbit Determination Parameters
Additional Information
|